Location: Holyhead Bay
(53.3667°N, 4.6667°W)
Time: 18:56:20
(UTC+00:00)

NOSS 0 Rocket - Pass Details

Date: 24 November 2020
Orbit: 937 x 953 km, 70.0° (Epoch: 17 January)

Event Time Altitude Azimuth Distance (km) Brightness Sun altitude
Rises 17:26:41 0° 193° (SSW) 3,616 7.5 -11.0°
Reaches altitude 10° 17:29:16 10° 189° (S) 2,674 6.7 -11.3°
Maximum altitude 17:35:16 53° 114° (ESE) 1,160 4.1 -12.2°
Enters shadow 17:40:52 12° 41° (NE) 2,535 5.7 -13.0°
